This is the latest recevied weather packets stored in our database for station/object CE2LOH-10. If no packets are shown the sender has not sent any weather packets the latest 10 day(s).
| Time | Temp. | Humidity | Pressure | Rain* | Wind** | Luminosity | Snow |
|---|---|---|---|---|---|---|---|
| 1777829009 | 21.67° C | 39% | 994.3 hPa | - | - | - | - |
| 1777827208 | 20.56° C | 42% | 994.9 hPa | - | - | - | - |
| 1777826308 | 20° C | 42% | 995 hPa | - | - | - | - |
| 1777825408 | 20° C | 43% | 995.1 hPa | - | - | - | - |
| 1777824508 | 19.44° C | 44% | 995.2 hPa | - | - | - | - |
| 1777823608 | 18.89° C | 44% | 995.4 hPa | - | - | - | - |
| 1777822708 | 18.33° C | 45% | 995.5 hPa | - | - | - | - |
| 1777821808 | 17.78° C | 46% | 995.5 hPa | - | - | - | - |
| 1777820907 | 17.22° C | 46% | 995.7 hPa | - | - | - | - |
| 1777820007 | 16.67° C | 47% | 995.7 hPa | - | - | - | - |
| 1777819107 | 16.11° C | 47% | 995.5 hPa | - | - | - | - |
| 1777818206 | 15.56° C | 47% | 995.6 hPa | - | - | - | - |
| 1777817306 | 15° C | 47% | 995.9 hPa | - | - | - | - |
| 1777816406 | 14.44° C | 48% | 995.8 hPa | - | - | - | - |
| 1777815506 | 14.44° C | 47% | 995.9 hPa | - | - | - | - |
| 1777814606 | 14.44° C | 47% | 995.8 hPa | - | - | - | - |
| 1777813706 | 13.33° C | 47% | 995.4 hPa | - | - | - | - |
| 1777812806 | 13.33° C | 46% | 995.4 hPa | - | - | - | - |
| 1777811906 | 12.78° C | 47% | 995.1 hPa | - | - | - | - |
| 1777811005 | 12.78° C | 47% | 995 hPa | - | - | - | - |
| 1777810105 | 12.78° C | 46% | 995.4 hPa | - | - | - | - |
| 1777809205 | 12.78° C | 46% | 995.2 hPa | - | - | - | - |
| 1777808305 | 12.78° C | 46% | 995 hPa | - | - | - | - |
| 1777807405 | 12.78° C | 46% | 994.9 hPa | - | - | - | - |
| 1777806505 | 13.33° C | 46% | 994.7 hPa | - | - | - | - |
* Rain since midnight (hover to see other rain measurements)
** Current wind speed in m/s (hover to see current wind gust speed)